{"data":{"norad_id":56709,"intl_designator":"2023-067X","name":"STARLINK-30085","alt_names":[],"object_type":"PAYLOAD","status":"ACTIVE","operator":null,"country":"US","launch_date":"2023-05-19","launch_site_code":"AFETR","launch_vehicle":null,"mission":null,"orbit_class":"UNKNOWN","rcs_meters":null,"size_class":null,"mass_kg":null,"dimensions":null,"purposes":["comms"],"wikipedia_slug":null,"has_3d_model":false,"image_url":null,"decayed_at":null,"tle_current":{"epoch":"2026-05-25T04:38:27.894624Z","epoch_age_seconds":65251,"freshness":"FRESH","line1":"1 56709U 23067X   26145.19337841  .00000292  00000+0  20129-4 0  9999","line2":"2 56709  43.0025 198.7188 0001054 278.8579  81.2153 15.27578702167144","mean_motion":15.27578702,"eccentricity":0.0001054,"inclination_deg":43.0025,"raan_deg":198.7188,"arg_perigee_deg":278.8579,"mean_anomaly_deg":81.2153,"bstar":2.0129e-5,"rev_number":16714,"period_min":94.266828813119,"perigee_km":482.32981329718,"apogee_km":483.77615214554,"semimajor_km":6861.1899827214,"source":"CELESTRAK","updated_at":"2026-05-25T13:38:18.123288Z"}}}